Simultaneous Nadir Overpasses (SNOs) Predictions

Prediction of SNOs between GOES-15 and LANDSAT-8 Satellite Orbit:

Table of predicted SNOs for the next 14.0 days since TLE Epoch: 11/16/2019
Index Date Time (GOES-15) GOES-15 Lat,Lon LANDSAT-8 Lat,Lon Distance(km) Time Diff (sec)
1 11/16/2019 06:55:03 0.23,-128.52 -0.12,-130.23 194.56 80
2 11/18/2019 06:40:11 0.22,-128.51 0.50,-127.27 140.70 80
3 11/18/2019 19:01:26 -0.21,-128.49 0.62,-132.42 446.82 80
4 11/20/2019 06:27:59 0.22,-128.49 1.12,-124.31 475.51 80
5 11/20/2019 18:49:14 -0.21,-128.48 0.00,-129.46 111.98 80
6 11/22/2019 18:39:42 -0.21,-128.46 -0.62,-126.50 222.57 80
7 11/23/2019 07:01:06 0.19,-128.47 -0.48,-131.69 366.54 80
8 11/25/2019 06:48:54 0.20,-128.45 0.15,-128.73 32.59 80
9 11/27/2019 06:34:02 0.20,-128.42 0.78,-125.78 300.89 80
10 11/27/2019 18:57:57 -0.18,-128.39 0.34,-130.93 287.66 80
11 11/29/2019 18:43:05 -0.18,-128.36 -0.29,-127.97 45.53 80




NCC Satellite Simultaneous Nadir Overpasses (SNOs) Prediction Service
